Regional Weather Roundup
Issued by NWS

Home | Current Version | Previous Version | Graphics & Text | Print | Product List | Glossary On
Versions: 1 2 3 4 5 6 7 8 9 10 11 12 13 14 15 16 17 18 19 20 21 22 23 24 25 26 27 28 29 30 31 32 33 34 35 36 37 38 39 40 41 42 43 44 45 46 47 48 49 50
000
ASUS45 KBOU 281607
RWRCO

WEATHER ROUNDUP FOR COLORADO
NATIONAL WEATHER SERVICE DENVER/BOULDER CO
1000 AM MDT FRI AUG 28 2015

NOTE: "FAIR" INDICATES FEW OR NO CLOUDS BELOW 12000 FEET WITH NO
SIGNIFICANT WEATHER AND/OR OBSTRUCTIONS TO VISIBILITY.

COZ001>005-013-030-031-281700-
...NORTHWEST COLORADO...

CITY           SKY/WX    TMP DP  RH WIND       PRES   REMARKS
CRAIG          SUNNY     63  49  60 E3        30.39S
HAYDEN         NOT AVBL
MEEKER         SUNNY     61  49  64 CALM      30.40R
MOUNT WERNER   NOT AVBL
STEAMBOAT SPGS SUNNY     55  49  79 CALM      30.42S
WALDEN         SUNNY     54  46  76 CALM      30.46S
$$

COZ006>008-011-281700-
...WEST CENTRAL VALLEYS...

CITY           SKY/WX    TMP DP  RH WIND       PRES   REMARKS
GRAND JUNCTION SUNNY     68  53  58 SE9       30.30R
MONTROSE       SUNNY     65  51  60 CALM      30.37R
EAGLE          SUNNY     59  48  67 CALM      30.44F
RIFLE          SUNNY     63  51  65 VRB3      30.37S
DELTA          SUNNY     67  53  61 CALM      30.34S
NUCLA          SUNNY     68  46  45 CALM      30.37S
$$

COZ017>023-064>068-281700-
...SOUTHWEST COLORADO...

CITY           SKY/WX    TMP DP  RH WIND       PRES   REMARKS
DURANGO        SUNNY     68  45  43 SW3       30.33S
CORTEZ         SUNNY     71  50  47 VRB3      30.29S
PAGOSA SPRINGS SUNNY     67  40  37 CALM      30.40R
TELLURIDE      SUNNY     60  44  55 CALM      30.53S
WOLF CREEK PAS SUNNY     52  34  50 NE17G23   30.70R
$$

COZ009-010-012-014-032>034-037-058>063-281700-
...CENTRAL COLORADO...

CITY           SKY/WX    TMP DP  RH WIND       PRES   REMARKS
ASPEN          SUNNY     59  45  59 CALM      30.47S
BUENA VISTA    SUNNY     67  37  33 NW18G26   30.42F
COPPER MTN     MOSUNNY   46  37  71 W13       30.71R
BERTHOUD PASS  CLOUDY    37  28  70 N10       30.73R HAZE
COTTONWOOD PAS SUNNY     63  36  36 CALM      30.56R
GUNNISON       SUNNY     57  45  62 CALM      30.49S
KREMMLING      PTSUNNY   54  46  76 CALM      30.49R
LEADVILLE      SUNNY     55  39  54 N13       30.56S
SALIDA         SUNNY     65  42  43 CALM      30.49S
SUNLIGHT       SUNNY     54  39  58 N5        30.68R
WILKERSON PASS SUNNY     52  32  46 N6        30.67R
$$

COZ069>075-281700-
...SAN LUIS VALLEY/SANGRE DE CRISTO MOUNTAINS...

CITY           SKY/WX    TMP DP  RH WIND       PRES   REMARKS
ALAMOSA        SUNNY     65  45  48 NW6       30.39S
LA VETA PASS   SUNNY     63  41  45 NE6       30.56R
SAGUACHE       SUNNY     66  43  42 NW15      30.41F
$$

COZ035-036-038>040-281700-
...NORTHERN COLORADO FRONT RANGE...

CITY           SKY/WX    TMP DP  RH WIND       PRES   REMARKS
DENVER INTL AP PTSUNNY   73  47  39 SW6       30.25R
DMNS CITY PARK   N/A     71  51  48 E7        30.26R
AURORA         PTSUNNY   73  52  48 SW6       30.28R
FRONT RANGE AP PTSUNNY   75  45  33 NW8       30.26S
ERIE MUNI ARPT PTSUNNY   76  44  31 CALM      30.23S
BOULDER MUN AP CLOUDY    73  45  35 CALM      30.24R
CENTENNIAL     MOSUNNY   72  49  44 NW8       30.29R
BROOMFIELD     PTSUNNY   75  45  33 CALM      30.27S
FORT COLLINS   MOSUNNY   72  50  46 CALM      30.24R
LONGMONT       PTSUNNY   78  53  41 CALM      30.24S
$$

COZ041-046-047-076>085-087-088-281700-
...PIKES PEAK/PALMER DIVIDE AND SOUTHERN FOOTHILLS...

CITY           SKY/WX    TMP DP  RH WIND       PRES   REMARKS
COLO. SPRINGS  MOSUNNY   75  44  33 NW10      30.30R
A. F. ACADEMY  SUNNY     71  46  40 N16       30.31R
ELLICOTT       SUNNY    N/A N/A N/A N13       30.28R
FALCON         SUNNY     69  46  43 MISG      30.36R
FORT CARSON    SUNNY     72  52  49 N6        30.28R
LIMON          SUNNY     73  51  46 N15       30.25R
MONUMENT HILL  SUNNY     64  46  52 NW12G18   30.36R
TRINIDAD       SUNNY     74  53  48 NW7       30.26R
$$

COZ042>045-048>051-090-091-281700-
...NORTHEAST COLORADO...

CITY           SKY/WX    TMP DP  RH WIND       PRES   REMARKS
GREELEY ARPT   PTSUNNY   72  52  49 NW6       30.22S
AKRON          SUNNY     76  48  37 NW15      30.17R
BURLINGTON     SUNNY     79  51  37 NW12      30.14S
WRAY           SUNNY     81  49  33 NW17G23   30.09R
STERLING       SUNNY     81  48  32 N18G24    30.11S
HOLYOKE        SUNNY     81  50  34 N16       30.09R
FORT MORGAN    PTSUNNY   72  54  52 W10       30.19R
$$

COZ086-089-092>099-281700-
...SOUTHEAST COLORADO...

CITY           SKY/WX    TMP DP  RH WIND       PRES   REMARKS
PUEBLO         SUNNY     78  55  44 W7        30.21R
LA JUNTA       SUNNY     78  57  48 VRB7      30.17R
LAMAR          PTSUNNY   78  61  55 NW7       30.12R
SPRINGFIELD      N/A     79  58  48 E5        30.15R
$$



USA.gov is the U.S. government's official web portal to all federal, state and local government web resources and services.